TimeCDT,TemperatureF,Dew PointF,Humidity,Sea Level PressureIn,VisibilityMPH,Wind Direction,Wind SpeedMPH,Gust SpeedMPH,PrecipitationIn,Events,Conditions,WindDirDegrees,DateUTC
12:15 AM,3.2,3.2,100,30.09,10.0,North,8.1,-,N/A,,Clear,360,2013-03-11 05:15:00
12:34 AM,3.2,1.4,92,30.07,10.0,North,9.2,-,N/A,,Clear,360,2013-03-11 05:34:00
12:55 AM,1.4,1.4,100,30.07,10.0,NNW,11.5,-,N/A,,Clear,340,2013-03-11 05:55:00
1:15 AM,3.2,1.4,92,30.06,10.0,North,8.1,-,N/A,,Clear,360,2013-03-11 06:15:00
1:34 AM,1.4,1.4,100,30.05,10.0,NNW,4.6,-,N/A,,Clear,340,2013-03-11 06:34:00
1:55 AM,3.2,1.4,92,30.05,10.0,NNW,11.5,-,N/A,,Clear,340,2013-03-11 06:55:00
2:15 AM,3.2,1.4,92,30.04,10.0,North,9.2,-,N/A,,Clear,350,2013-03-11 07:15:00
2:34 AM,1.4,1.4,100,30.03,10.0,North,6.9,-,N/A,,Clear,350,2013-03-11 07:34:00
2:55 AM,1.4,-0.4,92,30.03,10.0,North,4.6,-,N/A,,Clear,350,2013-03-11 07:55:00
3:14 AM,1.4,1.4,100,30.02,10.0,North,3.5,-,N/A,,Clear,350,2013-03-11 08:14:00
3:35 AM,1.4,1.4,100,30.01,10.0,North,5.8,-,N/A,,Clear,350,2013-03-11 08:35:00
3:55 AM,1.4,-0.4,92,30.00,10.0,North,5.8,-,N/A,,Clear,350,2013-03-11 08:55:00
4:14 AM,1.4,-0.4,92,30.00,4.0,North,4.6,-,N/A,Snow,Light Snow,350,2013-03-11 09:14:00
4:35 AM,-0.4,-0.4,100,29.98,10.0,North,3.5,-,N/A,,Clear,350,2013-03-11 09:35:00
4:55 AM,-0.4,-0.4,100,29.97,10.0,North,4.6,-,N/A,,Clear,360,2013-03-11 09:55:00
5:14 AM,-0.4,-0.4,100,29.97,10.0,North,3.5,-,N/A,,Clear,360,2013-03-11 10:14:00
5:35 AM,-0.4,-2.2,92,29.96,10.0,North,3.5,-,N/A,,Clear,350,2013-03-11 10:35:00
5:55 AM,-0.4,-2.2,92,29.96,10.0,Calm,Calm,-,N/A,,Clear,0,2013-03-11 10:55:00
6:14 AM,-0.4,-0.4,100,29.97,10.0,NNW,4.6,-,N/A,,Clear,340,2013-03-11 11:14:00
6:35 AM,3.2,1.4,92,29.96,10.0,North,4.6,-,N/A,,Scattered Clouds,360,2013-03-11 11:35:00
6:55 AM,5.0,3.2,92,29.96,10.0,North,3.5,-,N/A,,Overcast,350,2013-03-11 11:55:00
7:14 AM,6.8,5.0,92,29.96,10.0,North,3.5,-,N/A,,Overcast,360,2013-03-11 12:14:00
7:35 AM,6.8,5.0,92,29.95,10.0,North,3.5,-,N/A,,Overcast,360,2013-03-11 12:35:00
7:54 AM,6.8,6.8,100,29.95,10.0,North,4.6,-,N/A,,Overcast,360,2013-03-11 12:54:00
8:14 AM,6.8,6.8,100,29.94,10.0,NNE,4.6,-,N/A,,Overcast,20,2013-03-11 13:14:00
8:35 AM,6.8,6.8,100,29.93,10.0,North,4.6,-,N/A,,Mostly Cloudy,10,2013-03-11 13:35:00
8:54 AM,8.6,6.8,92,29.93,10.0,North,3.5,-,N/A,,Overcast,10,2013-03-11 13:54:00
9:14 AM,8.6,6.8,92,29.93,10.0,NNE,3.5,-,N/A,,Mostly Cloudy,20,2013-03-11 14:14:00
9:35 AM,8.6,6.8,92,29.93,10.0,NNW,3.5,-,N/A,,Scattered Clouds,330,2013-03-11 14:35:00
9:54 AM,8.6,6.8,92,29.92,10.0,Calm,Calm,-,N/A,,Clear,0,2013-03-11 14:54:00
10:14 AM,8.6,6.8,92,29.92,10.0,Calm,Calm,-,N/A,,Clear,0,2013-03-11 15:14:00
10:35 AM,8.6,6.8,92,29.91,10.0,Calm,Calm,-,N/A,,Clear,0,2013-03-11 15:35:00
10:54 AM,10.4,6.8,85,29.90,10.0,Calm,Calm,-,N/A,,Clear,0,2013-03-11 15:54:00
11:14 AM,10.4,6.8,85,29.90,10.0,Calm,Calm,-,N/A,,Clear,0,2013-03-11 16:14:00
11:35 AM,12.2,8.6,85,29.90,10.0,Calm,Calm,-,N/A,,Scattered Clouds,0,2013-03-11 16:35:00
11:54 AM,12.2,8.6,85,29.90,10.0,Calm,Calm,-,N/A,,Clear,0,2013-03-11 16:54:00
12:14 PM,12.2,8.6,85,29.89,10.0,Calm,Calm,-,N/A,,Clear,0,2013-03-11 17:14:00
12:35 PM,14.0,8.6,79,29.89,10.0,Calm,Calm,-,N/A,,Clear,0,2013-03-11 17:35:00
12:54 PM,14.0,10.4,86,29.89,10.0,Calm,Calm,-,N/A,,Clear,0,2013-03-11 17:54:00
1:14 PM,15.8,10.4,79,29.89,10.0,Calm,Calm,-,N/A,,Clear,0,2013-03-11 18:14:00
1:35 PM,15.8,10.4,79,29.89,10.0,Calm,Calm,-,N/A,,Clear,0,2013-03-11 18:35:00
1:54 PM,15.8,10.4,79,29.89,10.0,Calm,Calm,-,N/A,,Clear,0,2013-03-11 18:54:00
2:14 PM,17.6,12.2,79,29.88,10.0,Calm,Calm,-,N/A,,Clear,0,2013-03-11 19:14:00
2:35 PM,17.6,12.2,79,29.87,10.0,Calm,Calm,-,N/A,,Clear,0,2013-03-11 19:35:00
2:54 PM,19.4,14.0,80,29.85,10.0,Calm,Calm,-,N/A,,Scattered Clouds,0,2013-03-11 19:54:00
3:14 PM,19.4,15.8,86,29.84,10.0,Calm,Calm,-,N/A,,Scattered Clouds,0,2013-03-11 20:14:00
3:54 PM,21.2,15.8,80,29.84,10.0,SW,4.6,-,N/A,,Mostly Cloudy,230,2013-03-11 20:54:00
4:15 PM,21.2,15.8,80,29.84,10.0,SW,6.9,-,N/A,,Scattered Clouds,230,2013-03-11 21:15:00
4:35 PM,21.2,15.8,80,29.84,10.0,WSW,4.6,-,N/A,,Mostly Cloudy,240,2013-03-11 21:35:00
4:54 PM,23.0,15.8,74,29.84,10.0,North,3.5,-,N/A,,Mostly Cloudy,360,2013-03-11 21:54:00
5:15 PM,21.2,15.8,80,29.84,10.0,Calm,Calm,-,N/A,,Mostly Cloudy,0,2013-03-11 22:15:00
5:35 PM,21.2,15.8,80,29.84,10.0,WSW,5.8,-,N/A,,Overcast,250,2013-03-11 22:35:00
5:54 PM,21.2,15.8,80,29.84,10.0,WSW,3.5,-,N/A,,Overcast,240,2013-03-11 22:54:00
6:15 PM,21.2,15.8,80,29.83,10.0,SW,4.6,-,N/A,,Overcast,220,2013-03-11 23:15:00
6:34 PM,21.2,14.0,74,29.84,10.0,WSW,4.6,-,N/A,,Overcast,240,2013-03-11 23:34:00
6:54 PM,21.2,15.8,80,29.84,10.0,WSW,3.5,-,N/A,,Overcast,240,2013-03-11 23:54:00
7:15 PM,21.2,14.0,74,29.84,10.0,Calm,Calm,-,N/A,,Overcast,0,2013-03-12 00:15:00
7:34 PM,21.2,15.8,80,29.84,10.0,Calm,Calm,-,N/A,,Overcast,0,2013-03-12 00:34:00
7:55 PM,21.2,15.8,80,29.84,10.0,Calm,Calm,-,N/A,,Overcast,0,2013-03-12 00:55:00
8:15 PM,21.2,15.8,80,29.84,10.0,Calm,Calm,-,N/A,,Overcast,0,2013-03-12 01:15:00
8:35 PM,21.2,15.8,80,29.84,10.0,South,3.5,-,N/A,,Overcast,180,2013-03-12 01:35:00
8:55 PM,21.2,15.8,80,29.84,10.0,Calm,Calm,-,N/A,,Overcast,0,2013-03-12 01:55:00
9:14 PM,21.2,15.8,80,29.84,10.0,Calm,Calm,-,N/A,,Overcast,0,2013-03-12 02:14:00
9:35 PM,21.2,17.6,86,29.84,10.0,Calm,Calm,-,N/A,,Overcast,0,2013-03-12 02:35:00
9:55 PM,21.2,15.8,80,29.85,10.0,Calm,Calm,-,N/A,,Overcast,0,2013-03-12 02:55:00
10:14 PM,21.2,17.6,86,29.85,10.0,Calm,Calm,-,N/A,,Overcast,0,2013-03-12 03:14:00
10:35 PM,19.4,17.6,93,29.85,3.0,Calm,Calm,-,N/A,,Overcast,0,2013-03-12 03:35:00
10:55 PM,19.4,17.6,93,29.85,7.0,ENE,3.5,-,N/A,,Overcast,60,2013-03-12 03:55:00
11:14 PM,19.4,17.6,93,29.86,2.5,Calm,Calm,-,N/A,,Overcast,0,2013-03-12 04:14:00
11:35 PM,19.4,19.4,100,29.86,2.5,NE,3.5,-,N/A,,Overcast,40,2013-03-12 04:35:00
11:55 PM,19.4,19.4,100,29.87,2.5,Calm,Calm,-,N/A,,Overcast,0,2013-03-12 04:55:00